AAL7510 YSSY-YBBN

Flight info

Callsign AAL7510
Flight time N/A
Altitude 41000
Route OLSEM Y193 BANDA H252 BN
Aircraft MD11/H-SDE1E2E3FGHIJ2J3J4J5M1RWXY/LB1D1

Departure

Time 2026-05-05 08:52
Airport Sydney Kingsford Smith International Airport (YSSY)

Arrival

Time N/A
Airport Brisbane International Airport (YBBN)
Time Latitude Longitude Altitude Speed Heading
2026-05-05 08:23 -33.93887 151.16651 28 ft 0 kts 257°
2026-05-05 08:37 -33.93891 151.16630 28 ft 0 kts 257°
2026-05-05 08:37 -33.93889 151.16641 28 ft 4 kts 255°
2026-05-05 08:37 -33.93875 151.16700 28 ft 8 kts 243°
2026-05-05 08:38 -33.93838 151.16753 27 ft 9 kts 210°
2026-05-05 08:38 -33.93840 151.16751 27 ft 9 kts 211°
2026-05-05 08:38 -33.93867 151.16732 27 ft 2 kts 199°
2026-05-05 08:38 -33.93907 151.16756 28 ft 10 kts 143°
2026-05-05 08:39 -33.93922 151.16763 28 ft 0 kts 159°
2026-05-05 08:39 -33.93922 151.16764 28 ft 1 kts 159°
2026-05-05 08:40 -33.93976 151.16787 28 ft 1 kts 162°
2026-05-05 08:40 -33.94003 151.16797 29 ft 12 kts 162°
2026-05-05 08:40 -33.94035 151.16808 29 ft 7 kts 166°
2026-05-05 08:40 -33.94046 151.16810 29 ft 1 kts 169°
2026-05-05 08:41 -33.94058 151.16828 28 ft 4 kts 108°
2026-05-05 08:41 -33.94047 151.16904 28 ft 16 kts 76°
2026-05-05 08:41 -33.93994 151.17133 27 ft 31 kts 73°
2026-05-05 08:41 -33.93963 151.17264 29 ft 0 kts 75°
2026-05-05 08:46 -33.93958 151.17290 29 ft 10 kts 75°
2026-05-05 08:46 -33.93911 151.17467 30 ft 31 kts 68°
2026-05-05 08:47 -33.93859 151.17717 27 ft 26 kts 82°
2026-05-05 08:47 -33.93874 151.17774 27 ft 2 kts 148°
2026-05-05 08:47 -33.93888 151.17777 28 ft 5 kts 169°
2026-05-05 08:47 -33.93955 151.17794 30 ft 15 kts 168°
2026-05-05 08:48 -33.94090 151.17828 30 ft 24 kts 168°
2026-05-05 08:48 -33.94268 151.17875 32 ft 29 kts 168°
2026-05-05 08:48 -33.94460 151.17903 32 ft 19 kts 195°
2026-05-05 08:48 -33.94611 151.17906 32 ft 24 kts 169°
2026-05-05 08:49 -33.94800 151.17954 29 ft 33 kts 168°
2026-05-05 08:49 -33.95039 151.18016 33 ft 23 kts 167°
2026-05-05 08:49 -33.95110 151.18115 33 ft 10 kts 79°
2026-05-05 08:49 -33.95078 151.18251 32 ft 24 kts 76°
2026-05-05 08:50 -33.95042 151.18443 33 ft 20 kts 77°
2026-05-05 08:50 -33.95008 151.18637 32 ft 28 kts 78°
2026-05-05 08:50 -33.94996 151.18706 32 ft 0 kts 78°
2026-05-05 08:51 -33.94993 151.18725 32 ft 8 kts 78°
2026-05-05 08:51 -33.95020 151.18833 31 ft 13 kts 136°
2026-05-05 08:51 -33.95152 151.18886 30 ft 40 kts 167°
2026-05-05 08:52 -33.95672 151.19017 31 ft 116 kts 168°
2026-05-05 08:52 -33.96715 151.19289 198 ft 176 kts 168°
2026-05-05 08:52 -33.97893 151.19618 1402 ft 167 kts 164°
2026-05-05 08:52 -33.98864 151.20156 3185 ft 146 kts 148°
2026-05-05 08:53 -33.99606 151.21032 4708 ft 164 kts 127°
2026-05-05 08:53 -34.00234 151.22429 5337 ft 207 kts 118°
2026-05-05 08:53 -34.00964 151.24041 5310 ft 234 kts 130°
2026-05-05 08:53 -34.02153 151.25532 5564 ft 262 kts 140°
2026-05-05 08:54 -34.03546 151.27015 6844 ft 273 kts 141°
2026-05-05 08:54 -34.05008 151.28526 8094 ft 280 kts 142°
2026-05-05 08:54 -34.06517 151.30062 9374 ft 288 kts 142°
2026-05-05 08:54 -34.08075 151.31631 10568 ft 294 kts 142°
2026-05-05 08:55 -34.09654 151.33238 11736 ft 299 kts 140°
2026-05-05 08:55 -34.11049 151.35199 12557 ft 322 kts 120°
2026-05-05 08:55 -34.11658 151.37820 13692 ft 333 kts 92°
2026-05-05 08:55 -34.11222 151.40577 14777 ft 341 kts 66°
2026-05-05 08:56 -34.09958 151.42965 15815 ft 345 kts 49°
2026-05-05 08:56 -34.08310 151.45095 16877 ft 349 kts 43°
2026-05-05 08:56 -34.06385 151.46908 17766 ft 359 kts 28°
2026-05-05 08:56 -34.03995 151.48129 17911 ft 387 kts 15°
2026-05-05 08:57 -34.01316 151.48992 18296 ft 405 kts 11°
2026-05-05 08:57 -33.98587 151.49754 19096 ft 409 kts 11°
2026-05-05 08:57 -33.95798 151.50544 19895 ft 413 kts 11°
2026-05-05 08:57 -33.92993 151.51380 20658 ft 418 kts 11°
2026-05-05 08:58 -33.90162 151.52262 21450 ft 422 kts 12°
2026-05-05 08:58 -33.87311 151.53173 22252 ft 426 kts 12°
2026-05-05 08:58 -33.84430 151.54105 23072 ft 431 kts 12°
2026-05-05 08:58 -33.81520 151.55054 23878 ft 435 kts 11°
2026-05-05 08:59 -33.78591 151.56011 24636 ft 438 kts 11°
2026-05-05 08:59 -33.75628 151.56979 25451 ft 441 kts 11°
2026-05-05 08:59 -33.72655 151.57950 26247 ft 443 kts 10°
2026-05-05 08:59 -33.69668 151.58929 27071 ft 446 kts
2026-05-05 09:00 -33.66700 151.59910 27853 ft 449 kts 10°
2026-05-05 09:00 -33.63743 151.61259 28590 ft 460 kts 19°
2026-05-05 09:00 -33.60913 151.63160 29333 ft 470 kts 25°
2026-05-05 09:00 -33.58160 151.65334 30043 ft 477 kts 27°
2026-05-05 09:01 -33.55419 151.67617 30606 ft 481 kts 27°
2026-05-05 09:01 -33.52668 151.69917 31204 ft 483 kts 27°
2026-05-05 09:01 -33.49863 151.72089 31837 ft 475 kts 20°
2026-05-05 09:01 -33.46896 151.73683 32543 ft 461 kts 11°
2026-05-05 09:02 -33.43851 151.74795 33250 ft 454 kts
2026-05-05 09:02 -33.40842 151.75689 33942 ft 449 kts
2026-05-05 09:02 -33.37806 151.76546 34552 ft 447 kts
2026-05-05 09:02 -33.34781 151.77419 35057 ft 448 kts
2026-05-05 09:03 -33.31756 151.78328 35540 ft 448 kts
2026-05-05 09:03 -33.28738 151.79268 36009 ft 449 kts
2026-05-05 09:03 -33.25716 151.80229 36477 ft 449 kts
2026-05-05 09:03 -33.22696 151.81201 36936 ft 449 kts
2026-05-05 09:04 -33.19681 151.82175 37403 ft 449 kts
2026-05-05 09:04 -33.16663 151.83151 37850 ft 449 kts
2026-05-05 09:04 -33.13636 151.84128 38296 ft 448 kts
2026-05-05 09:04 -33.10622 151.85099 38731 ft 448 kts
2026-05-05 09:05 -33.07611 151.86067 39070 ft 449 kts
2026-05-05 09:05 -33.04594 151.87037 39377 ft 449 kts
2026-05-05 09:05 -33.01580 151.88004 39682 ft 449 kts
2026-05-05 09:05 -32.98599 151.88960 39979 ft 449 kts
2026-05-05 09:06 -32.95571 151.89931 40270 ft 450 kts
2026-05-05 09:06 -32.92545 151.90900 40558 ft 450 kts
2026-05-05 09:06 -32.89514 151.91871 40843 ft 450 kts
2026-05-05 09:06 -32.86472 151.92843 40952 ft 451 kts
2026-05-05 09:07 -32.83439 151.93814 40976 ft 451 kts
2026-05-05 09:07 -32.77417 151.95739 40983 ft 450 kts
2026-05-05 09:08 -32.71355 151.97672 40985 ft 450 kts
2026-05-05 09:08 -32.65293 151.99603 40987 ft 450 kts
2026-05-05 09:09 -32.59274 152.01517 40993 ft 450 kts
2026-05-05 09:09 -32.53235 152.03430 40996 ft 449 kts